| time (UTC) | temp F | wind direction | speed MPH | gust MPH | rain 1hr in | rain 24hr in | rain mn in | humidity % | barometer mb |
| 20260504014549 | 74 | 240 | 2.0 | 12.0 | 0.00 | 0.00 | 0.00 | 26 | 1015.2 |
| 20260504013040 | 74 | 11 | 3.0 | 9.0 | 0.00 | 0.00 | 0.00 | 25 | 1015.1 |
| 20260504011536 | 75 | 27 | 2.0 | 8.0 | 0.00 | 0.00 | 0.00 | 25 | 1014.9 |
| 20260504010034 | 75 | 60 | 1.0 | 7.0 | 0.00 | 0.00 | 0.00 | 25 | 1014.7 |
| 20260504004532 | 76 | 352 | 2.0 | 10.0 | 0.00 | 0.00 | 0.00 | 24 | 1014.7 |
| 20260504003041 | 76 | 0 | 1.0 | 8.0 | 0.00 | 0.00 | 0.00 | 24 | 1014.7 |
| 20260504001545 | 77 | 72 | 1.0 | 6.0 | 0.00 | 0.00 | 0.00 | 23 | 1014.8 |
| 20260504000043 | 78 | 0 | 1.0 | 9.0 | 0.00 | 0.00 | 0.00 | 22 | 1014.9 |
| 20260503234535 | 79 | 112 | 1.0 | 8.0 | 0.00 | 0.00 | 0.00 | 22 | 1015.1 |
| 20260503233031 | 80 | 6 | 1.0 | 9.0 | 0.00 | 0.00 | 0.00 | 22 | 1015.1 |
| 20260503231533 | 80 | 3 | 1.0 | 11.0 | 0.00 | 0.00 | 0.00 | 21 | 1015.3 |
| 20260503230037 | 80 | 33 | 2.0 | 12.0 | 0.00 | 0.00 | 0.00 | 20 | 1015.3 |
| 20260503224539 | 81 | 290 | 0.0 | 8.0 | 0.00 | 0.00 | 0.00 | 20 | 1015.4 |
| 20260503223036 | 82 | 58 | 1.0 | 9.0 | 0.00 | 0.00 | 0.00 | 19 | 1015.5 |
| 20260503221542 | 82 | 17 | 2.0 | 9.0 | 0.00 | 0.00 | 0.00 | 18 | 1015.4 |
| 20260503220035 | 83 | 12 | 2.0 | 10.0 | 0.00 | 0.00 | 0.00 | 16 | 1015.8 |
| 20260503214534 | 83 | 63 | 2.0 | 9.0 | 0.00 | 0.00 | 0.00 | 17 | 1015.8 |
| 20260503213035 | 84 | 84 | 1.0 | 3.0 | 0.00 | 0.00 | 0.00 | 19 | 1016.1 |
| 20260503211532 | 84 | 83 | 1.0 | 10.0 | 0.00 | 0.00 | 0.00 | 17 | 1016.2 |
| 20260503210048 | 84 | 98 | 0.0 | 9.0 | 0.00 | 0.00 | 0.00 | 17 | 1016.4 |
| 20260503204541 | 84 | 79 | 1.0 | 6.0 | 0.00 | 0.00 | 0.00 | 19 | 1016.7 |
| 20260503203036 | 84 | 0 | 0.0 | 5.0 | 0.00 | 0.00 | 0.00 | 18 | 1017.1 |
| 20260503201536 | 84 | 82 | 0.0 | 7.0 | 0.00 | 0.00 | 0.00 | 16 | 1017.3 |
| 20260503200043 | 85 | 98 | 0.0 | 4.0 | 0.00 | 0.00 | 0.00 | 20 | 1017.6 |
| 20260503194533 | 84 | 342 | 1.0 | 6.0 | 0.00 | 0.00 | 0.00 | 18 | 1017.8 |
| 20260503193038 | 84 | 228 | 0.0 | 6.0 | 0.00 | 0.00 | 0.00 | 19 | 1018.0 |
| 20260503191535 | 84 | 0 | 0.0 | 7.0 | 0.00 | 0.00 | 0.00 | 26 | 1018.3 |
| 20260503190043 | 84 | 309 | 1.0 | 5.0 | 0.00 | 0.00 | 0.00 | 21 | 1018.6 |
| 20260503184535 | 84 | 77 | 0.0 | 3.0 | 0.00 | 0.00 | 0.00 | 26 | 1018.8 |
| 20260503183033 | 83 | 0 | 1.0 | 7.0 | 0.00 | 0.00 | 0.00 | 23 | 1019.1 |
| 20260503181537 | 83 | 89 | 0.0 | 7.0 | 0.00 | 0.00 | 0.00 | 25 | 1019.4 |
| 20260503180033 | 82 | 118 | 1.0 | 4.0 | 0.00 | 0.00 | 0.00 | 26 | 1019.6 |
| 20260503174534 | 82 | 75 | 2.0 | 5.0 | 0.00 | 0.00 | 0.00 | 26 | 1019.8 |
| 20260503173049 | 81 | 27 | 1.0 | 3.0 | 0.00 | 0.00 | 0.00 | 28 | 1020.0 |
| 20260503171531 | 80 | 94 | 1.0 | 4.0 | 0.00 | 0.00 | 0.00 | 31 | 1020.2 |
| 20260503081549 | 58 | 0 | 0.0 | 1.0 | 0.00 | 0.00 | 0.00 | 52 | 1019.5 |
| 20260503071542 | 58 | 0 | 0.0 | 0.0 | 0.00 | 0.00 | 0.00 | 53 | 1019.8 |
| 20260503054539 | 60 | 91 | 0.0 | 2.0 | 0.00 | 0.00 | 0.00 | 49 | 1019.5 |
| 20260503053031 | 60 | 91 | 0.0 | 2.0 | 0.00 | 0.00 | 0.00 | 50 | 1019.5 |
| 20260503051535 | 60 | 91 | 0.0 | 2.0 | 0.00 | 0.00 | 0.00 | 51 | 1019.4 |
| 20260503050036 | 60 | 94 | 0.0 | 2.0 | 0.00 | 0.00 | 0.00 | 53 | 1019.3 |
| 20260503044541 | 60 | 0 | 0.0 | 0.0 | 0.00 | 0.00 | 0.00 | 53 | 1019.3 |
| 20260503043034 | 60 | 0 | 0.0 | 0.0 | 0.00 | 0.00 | 0.00 | 54 | 1019.3 |
| 20260503041541 | 60 | 0 | 0.0 | 1.0 | 0.00 | 0.00 | 0.00 | 55 | 1019.3 |
| 20260503040034 | 60 | 0 | 0.0 | 0.0 | 0.00 | 0.00 | 0.00 | 56 | 1019.3 |
| 20260503034534 | 60 | 0 | 0.0 | 1.0 | 0.00 | 0.00 | 0.00 | 57 | 1019.3 |
| 20260503033032 | 60 | 0 | 0.0 | 0.0 | 0.00 | 0.00 | 0.00 | 59 | 1019.3 |
| 20260503031541 | 60 | 0 | 0.0 | 0.0 | 0.00 | 0.00 | 0.00 | 59 | 1019.2 |
| 20260503030039 | 60 | 0 | 0.0 | 0.0 | 0.00 | 0.00 | 0.00 | 58 | 1019.0 |
| 20260503024538 | 61 | 0 | 0.0 | 0.0 | 0.00 | 0.00 | 0.00 | 56 | 1018.9 |
| 20260503023038 | 61 | 0 | 0.0 | 0.0 | 0.00 | 0.00 | 0.00 | 55 | 1018.8 |
| 20260503021539 | 62 | 0 | 0.0 | 0.0 | 0.00 | 0.00 | 0.00 | 54 | 1018.6 |
| 20260503020035 | 63 | 0 | 0.0 | 0.0 | 0.00 | 0.00 | 0.00 | 52 | 1018.5 |